Waterloo, NY (13165)

8:44 AM EDT on September 04, 2015 (GMT -0400)
E Elisha St | | Change Station
CLOSE
Current Station
Personal Weather Station
Location: Waterloo, NY
Elevation: 463 ft
Nearby Weather Stations

Elev 463 ft 42.91 °N, 76.86 °W | Updated 37 seconds ago

Partly Cloudy
Partly Cloudy
68.5 °F
Feels Like 68.5 °F
N
1.0
Wind Variable Wind from WSW
Gusts 1.0 mph

Today
High -- | Low -- °F
--% Chance of Precip.
Yesterday
High -- | Low -- °F
Precip. -- in
6:35 AM 7:37 PM
Waning Gibbous, 60% visible
Pressure 30.10 in
Visibility 1.8 miles
Clouds Overcast 100 ft
Dew Point 68 °F
Humidity 98%
Rainfall 0.00 in
Snow Depth Not available.
UV 0 out of 12
Pollen 9.50 out of 12
Air Quality Not available.
Flu Activity Not available.
SPECI KPEO 041213Z AUTO 00000KT 1 3/4SM BR OVC001 20/19 A3010 RMK AO2 T02000194
Pressure 30.10 in
Visibility 1.8 miles
Clouds Overcast 100 ft
Dew Point 68 °F
Humidity 98%
Rainfall 0.00 in
Snow Depth Not available.
UV 0 out of 12
Pollen 9.50 out of 12
Air Quality Not available.
Flu Activity Not available.
SPECI KPEO 041213Z AUTO 00000KT 1 3/4SM BR OVC001 20/19 A3010 RMK AO2 T02000194

10-Day Weather Forecast

×

Almanac

Astronomy

Sep. 04, 2015 Rise Set
Actual Time
Civil Twilight
Nautical Twilight
Astronomical Twilight
Moon
Length of Visible Light
Length of Day
Tomorrow will be .
, % of the Moon is Illuminated

Today's Extremes

State Highs State Lows

Community

WunderPhotos

Upload Photos

1,852,174 photos uploaded!

WunderBlogs® & News

Nearby

Air Quality

  Air Quality AQ Index Pollutant
Not available.

Snow Depth

Station Depth Elevation

Earthquake Activity

City Distance Mag. Time & Date
Minimum magnitude displayed is 2.5.

Coastal Water Temperatures

Place Temperature

Stations

Nearby Weather Stations

Station Location Temp. Windchill Dew Point Humidity Wind Precip. Elev Updated Type